EHI
46 49 52 51 47 44 39 33 29 22 16 11 6 3 2 1 1 2 3 3 3 2 1 0 0 0 0 0 0 0 0 0 0 0 0 0 0 0 1 0 0 0 0
45 49 54 55 53 48 42 35 30 25 20 14 7 4 3 2 1 1 2 3 3 2 2 1 1 1 0 0 0 0 0 0 0 0 0 0 0 0 1 0 0 0 0
44 49 55 59 58 53 48 40 33 28 23 16 9 5 3 3 2 2 2 2 3 3 2 2 2 1 0 0 0 0 0 0 0 0 0 0 0 0 0 0 0 0 0
43 47 52 56 57 55 51 46 39 32 25 18 10 5 3 3 3 3 2 2 2 2 3 3 3 2 0 0 0 0 0 0 0 0 0 0 0 0 0 0 0 0 0
43 44 46 48 50 51 49 47 43 36 30 23 13 6 5 3 3 3 4 3 2 3 4 4 4 2 1 0 0 0 0 0 0 0 0 0 0 0 0 0 0 0 0
42 41 40 41 43 45 46 46 44 38 32 26 17 11 9 7 5 5 6 5 4 4 5 6 4 2 1 1 1 1 0 0 0 0 0 0 0 0 0 0 0 0 0
41 38 37 37 41 43 44 43 41 36 29 25 21 16 14 13 10 8 7 5 3 3 4 5 3 1 1 1 2 2 1 0 0 0 0 0 0 0 0 0 0 0 0
39 36 34 35 39 43 44 41 39 34 28 25 23 20 19 16 12 9 7 5 2 2 4 5 3 1 1 1 2 2 1 0 0 0 0 0 1 1 1 1 1 1 1
36 34 32 32 35 39 41 40 38 35 29 25 23 21 19 16 11 8 7 6 4 3 5 6 5 3 2 1 1 1 1 0 0 0 0 1 2 2 2 2 2 2 2
33 32 31 31 32 35 37 38 37 34 29 24 21 19 17 14 11 8 7 6 4 3 4 6 5 3 2 1 0 0 0 0 0 0 0 1 3 3 3 3 3 3 3
31 33 34 35 34 35 37 36 36 33 29 25 20 17 15 13 10 9 7 6 5 4 5 5 4 3 1 1 0 1 2 1 1 1 1 2 3 3 3 3 3 2 2
31 34 38 41 40 38 37 36 34 31 28 26 21 17 15 13 11 9 8 7 6 5 5 5 4 3 2 2 2 2 3 3 2 2 3 3 3 3 3 2 1 1 1
34 37 41 42 41 37 35 36 35 31 28 26 23 19 16 14 12 10 8 7 6 5 5 5 4 4 3 3 3 3 3 3 3 3 3 3 3 2 1 1 0 0 0
41 42 42 42 41 38 36 36 35 32 29 27 25 21 17 14 13 11 9 7 5 4 5 5 5 4 3 3 4 4 4 3 3 3 3 3 2 1 0 0 0 0 0
46 47 47 44 44 43 40 37 35 32 29 26 24 20 16 13 11 10 9 7 6 5 5 6 5 4 3 3 3 4 3 3 3 3 2 1 1 0 0 0 0 0 0
45 47 49 49 49 48 44 40 35 32 29 26 21 17 15 12 8 7 6 6 5 5 5 6 4 3 3 3 3 3 3 2 2 1 1 0 0 0 0 0 0 0 0
45 47 49 49 49 49 46 41 34 30 28 25 20 16 14 12 8 6 5 4 4 5 6 6 4 3 3 3 3 2 1 1 1 0 0 0 0 0 0 0 0 0 0
46 47 48 47 46 46 45 41 33 27 26 25 21 17 14 13 12 9 6 4 5 4 5 5 4 3 3 3 3 1 0 0 0 0 0 0 0 0 0 0 0 0 0
46 46 47 46 44 42 42 39 34 28 26 25 22 16 13 12 12 10 7 5 5 4 4 4 4 4 4 4 3 1 0 0 0 0 0 0 0 0 0 0 0 0 0
46 46 46 46 43 39 38 37 34 29 26 24 19 14 11 9 9 8 6 5 5 4 4 4 5 5 5 5 3 1 0 0 0 1 1 1 0 0 0 0 0 0 0
48 47 47 45 42 37 35 34 31 27 25 21 17 12 11 10 8 7 6 5 5 5 5 4 5 5 4 3 2 0 0 0 1 1 1 1 0 0 0 0 0 0 0
48 47 46 44 40 36 33 31 28 25 23 20 17 15 14 13 11 9 6 4 4 5 5 4 4 3 1 1 0 0 0 0 1 1 1 1 0 0 0 0 0 0 0
45 43 42 40 36 32 30 28 26 24 22 19 17 16 16 14 12 9 7 4 3 3 4 3 1 1 0 0 0 0 0 0 0 0 0 0 0 0 0 0 0 0 0
38 36 34 33 30 26 25 25 24 22 19 17 14 14 14 12 8 6 5 4 3 4 3 1 0 0 0 0 0 0 0 0 0 0 0 0 0 0 0 0 0 0 0
28 27 25 23 22 21 21 20 18 17 15 13 12 12 10 8 4 2 2 2 2 4 3 1 0 0 0 0 0 0 0 0 0 0 0 0 0 0 0 0 0 0 0
20 20 19 18 18 19 18 16 14 12 12 11 11 10 8 5 2 1 0 0 1 2 2 1 0 0 0 0 0 0 0 0 0 0 0 0 0 0 0 0 0 0 0
Wind_Speed
6 7 7 8 7 6 5 5 5 4 3 2 2 2 1 1 1 1 3 3 3 3 3 2 2 2 2 2 2 2 1 1 1 1 1 2 1 1 2 2 3 4 5
6 7 7 7 7 6 5 5 5 5 4 3 2 2 2 1 2 1 2 3 3 4 4 3 3 2 2 2 2 2 1 1 1 2 1 1 3 2 2 1 3 3 3
10 8 8 7 7 6 6 6 5 5 4 4 2 2 1 1 0 1 1 2 3 4 3 4 3 3 3 3 3 3 3 2 1 2 3 3 3 2 2 1 1 2 2
8 8 7 7 7 6 6 5 5 5 4 4 3 3 3 2 3 2 2 2 2 3 3 3 4 3 3 3 3 3 2 3 2 1 1 2 3 2 1 2 1 1 1
9 8 7 7 6 6 6 5 5 4 4 4 4 4 2 2 1 1 1 1 1 2 3 3 3 3 2 3 3 2 2 2 3 2 1 1 1 2 2 2 1 1 0
8 7 6 6 5 5 5 4 5 4 4 4 4 4 4 2 1 1 1 1 1 1 1 2 2 3 2 3 3 3 3 3 3 2 2 2 2 2 2 2 2 1 1
8 7 7 6 6 6 5 5 5 3 3 3 3 3 4 3 3 2 2 1 1 1 1 2 2 2 2 3 2 2 2 2 2 3 2 2 2 2 2 2 2 1 1
8 8 8 8 7 7 6 5 5 3 3 3 3 3 3 2 2 2 2 2 2 2 2 1 1 1 2 2 2 2 2 2 2 2 2 2 2 2 2 3 3 1 1
9 8 8 7 7 7 7 7 6 4 3 3 3 2 2 2 2 2 1 1 1 1 1 1 1 1 1 1 2 1 1 1 2 1 1 1 1 1 2 2 3 4 2
8 8 8 7 6 6 5 6 5 5 4 3 3 3 2 2 1 1 1 1 1 1 1 1 1 1 1 1 1 1 1 1 1 1 1 1 1 1 1 1 2 3 3
9 8 7 6 6 6 6 6 5 4 3 3 2 3 2 2 2 1 1 1 1 1 1 1 1 1 1 1 1 1 1 1 1 0 1 1 0 0 0 1 1 1 2
9 8 7 6 6 6 5 5 5 4 3 3 3 3 3 2 2 1 1 1 1 1 1 1 2 1 1 1 1 1 1 2 2 1 1 0 0 0 0 1 1 1 2
8 7 7 7 6 6 5 5 5 4 4 4 4 3 2 2 1 1 1 1 2 2 1 2 2 1 1 1 1 1 1 1 1 1 1 0 1 0 0 1 1 1 1
8 8 7 6 6 6 5 5 4 4 4 4 4 3 3 2 2 1 1 1 2 2 2 2 2 1 1 1 1 2 2 2 1 1 1 1 1 1 0 1 1 2 2
8 8 8 6 6 5 5 5 4 3 4 5 4 3 3 3 2 2 2 1 2 2 2 2 2 2 2 1 1 2 3 2 2 2 1 2 3 3 2 1 2 2 2
8 8 8 7 6 6 5 5 4 4 4 4 4 3 3 3 2 2 2 2 2 2 2 2 2 2 2 2 3 3 2 2 2 2 2 2 3 4 5 5 3 3 3
9 9 8 7 7 6 6 6 5 4 4 3 3 3 3 3 2 2 2 2 1 1 2 2 2 2 2 3 3 3 3 2 2 2 2 2 3 3 3 4 5 4 3
8 8 7 7 6 5 6 6 5 5 4 3 2 2 2 2 2 2 2 2 2 2 2 2 1 2 2 3 3 3 3 3 2 2 2 2 2 2 3 3 4 3 3
8 7 7 7 6 6 6 6 5 5 4 3 2 2 2 3 2 2 2 2 2 2 2 1 2 2 2 3 3 3 3 3 2 2 2 3 2 3 4 4 3 3 2
7 7 7 7 7 6 6 7 5 4 3 3 2 2 2 3 3 2 2 2 2 2 2 2 1 2 1 2 3 4 3 3 2 2 2 3 3 3 4 3 3 2 1
8 8 8 7 6 6 7 7 5 3 2 2 3 2 3 3 3 3 3 3 3 3 2 2 2 2 2 2 3 4 3 2 2 1 1 1 2 3 3 3 1 1 1
8 8 8 6 5 6 7 6 4 3 3 3 4 3 3 3 3 4 3 3 3 2 2 2 2 2 2 2 2 3 3 3 3 2 1 0 2 3 2 1 1 1 2
7 7 8 7 5 4 6 6 3 3 4 4 4 4 4 3 3 4 3 2 2 2 1 1 1 1 2 2 3 3 3 3 2 1 2 2 2 2 2 2 1 1 1
6 6 7 7 5 4 4 4 4 4 4 4 4 3 4 4 4 3 3 2 2 1 1 1 1 0 1 1 1 1 1 2 2 2 2 3 3 2 2 2 2 1 0
5 6 7 6 5 4 4 3 3 4 4 4 3 3 3 4 4 4 3 2 1 0 1 1 1 1 1 2 2 2 1 1 1 2 2 2 2 2 2 2 2 2 2
6 6 6 6 5 5 4 3 3 4 5 3 2 2 3 3 3 3 3 6 5 5 4 2 2 1 1 1 2 3 3 4 5 4 2 1 1 0 1 1 1 1 1
Wind_Direction
170 157 156 153 146 147 150 153 151 159 148 141 140 142 163 196 189 203 195 193 190 181 170 172 177 172 174 195 182 155 161 205 165 103 360 338 304 230 212 205 194 196 200
148 155 155 154 156 158 159 157 160 166 169 168 165 165 167 197 203 214 220 208 197 191 184 176 182 187 179 181 179 156 157 214 164 145 124 339 335 324 249 212 205 204 191
163 162 161 163 161 165 170 170 169 166 173 169 140 118 87 54 52 222 240 232 206 195 188 186 184 186 178 191 200 180 169 198 234 173 158 164 220 280 320 289 216 187 183
158 161 161 162 171 176 170 165 168 166 168 160 153 157 164 184 215 204 211 238 217 199 194 195 195 193 186 193 207 189 182 179 213 235 204 184 172 170 274 320 314 201 194
159 160 164 166 169 166 164 166 163 168 169 167 170 165 174 200 210 177 196 238 246 219 209 198 194 193 193 201 203 190 190 185 187 197 202 200 187 167 168 249 299 349 319
154 153 153 148 151 151 152 155 157 169 173 174 174 174 176 176 163 171 183 224 248 252 242 200 189 195 196 200 199 198 197 197 185 186 187 180 183 191 177 205 225 237 294
148 151 152 160 163 161 158 156 157 165 175 172 172 177 178 173 181 187 191 200 213 238 236 194 181 194 201 197 191 190 206 199 192 197 204 203 209 190 177 179 204 222 253
159 162 165 167 168 168 162 158 164 170 173 173 172 169 173 171 183 187 184 200 210 227 232 194 185 200 199 191 184 184 204 194 204 220 209 202 219 197 184 177 171 188 254
164 166 170 166 168 170 169 168 168 169 174 171 166 155 158 163 174 180 180 206 224 213 192 170 166 177 180 165 149 167 207 192 201 212 202 200 228 215 204 181 172 168 193
166 168 171 172 172 171 166 161 163 172 172 171 173 164 162 157 153 138 156 202 219 194 162 142 131 142 154 145 141 153 203 173 199 188 165 196 241 239 215 186 181 177 176
167 165 169 173 158 156 158 159 160 158 164 170 167 154 155 159 159 167 181 187 187 140 125 124 111 115 131 163 160 189 166 170 177 164 152 189 157 156 223 134 142 151 146
163 162 162 152 146 151 153 156 159 163 171 168 155 151 146 148 157 176 174 126 102 77 86 99 100 108 112 131 152 180 180 175 160 162 139 182 124 102 111 135 149 158 153
152 150 149 150 153 153 153 154 159 164 159 145 137 134 135 138 159 177 138 113 101 78 69 82 91 95 96 100 108 125 131 130 132 133 137 159 109 104 63 114 125 138 131
150 150 153 155 155 155 153 152 156 156 145 135 133 135 143 149 152 138 120 111 108 99 80 72 76 73 84 90 85 94 93 89 89 94 108 95 109 135 117 115 105 97 95
151 156 158 159 157 151 149 149 148 146 142 135 137 153 157 153 137 123 121 115 113 110 99 80 64 56 58 59 95 121 112 98 83 68 64 72 87 81 86 101 113 113 109
158 159 156 153 153 155 155 148 146 150 141 143 152 155 144 132 130 138 127 110 105 102 98 94 86 64 42 62 92 105 110 104 97 85 66 60 64 65 68 78 96 123 132
156 158 157 158 158 157 148 146 143 127 121 132 143 147 142 138 146 138 121 124 120 99 101 101 95 85 54 82 101 101 105 96 96 103 96 79 58 64 68 64 66 70 88
152 153 152 149 150 145 137 132 128 128 126 122 116 122 131 129 118 111 118 128 122 109 105 97 96 91 65 86 104 102 92 82 73 81 100 99 71 56 85 81 69 56 43
145 146 146 139 133 133 133 126 126 128 130 130 124 127 133 125 117 119 133 137 118 99 98 98 100 92 49 64 91 104 97 83 60 51 73 99 92 77 96 93 85 66 24
130 131 127 117 121 131 127 123 128 130 143 152 142 139 132 131 135 133 117 108 112 110 108 88 89 100 74 70 94 111 109 103 83 54 52 73 94 93 98 102 104 96 358
128 125 120 119 127 133 127 125 127 142 157 136 124 129 131 128 120 100 89 92 95 91 87 86 62 60 49 58 103 129 128 143 133 110 65 31 91 103 101 109 127 178 164
123 124 122 120 121 124 127 129 140 144 118 110 110 105 104 112 107 99 92 89 92 89 85 80 56 38 33 46 78 127 128 131 133 147 163 162 107 99 92 93 82 90 86
122 119 120 118 113 122 129 133 145 128 116 106 101 103 96 88 98 106 107 98 100 115 117 102 91 33 15 20 54 89 105 106 112 132 132 105 81 65 38 20 25 47 63
118 115 114 115 113 111 113 125 128 120 115 116 112 109 98 86 77 80 90 98 100 112 116 122 143 78 32 18 19 40 77 83 81 72 75 70 59 42 14 5 3 6 23
108 110 114 118 119 112 104 110 120 119 115 113 114 114 113 113 95 75 60 72 68 166 176 180 162 163 222 259 203 151 140 133 112 86 58 45 34 17 3 360 358 357 11
117 113 113 116 115 111 108 108 116 118 120 118 118 127 127 121 117 110 76 47 50 44 54 71 133 150 201 194 155 143 127 122 122 104 93 77 54 324 300 308 326 342 346